Weather in Tokma

Russia / Irkutsk Oblast     58°15′16″N   105°51′26″E
temp.,
°C
wind,
m/s
gust,
m/s
humid.,
%
clouds,
%
prec.,
mm/h
press.,
hPa
HPBL,
m
5 august, thu
thu523:00+17nw266298 0.0 1005129
02:00+18w41161100 0.0 1003452
05:00+13nnw278424 0.1 1004166
08:00+15n3682100 0.1 1004487
11:00+18n3466100 0.0 10041183
14:00+21nne245494 0.0 10031304
17:00+16nne2592100 1.4 1004269
20:00+14nw239888 3.9 1003105
6 august, fri
fri623:00+12nnw119754 0.0 100313
02:00+12nnw119843 0.0 100313
05:00+11n229994 0.0 100340
08:00+15ne249192 0.0 1003329
11:00+17ne357999 0.1 1003780
14:00+19ne477935 2.0 1002929
17:00+19ne477981 2.6 1002883
20:00+16nne41189100 4.3 1003511
7 august, sat
sat723:00+13nne399588 0.0 1004191
02:00+12nne2109556 0.0 1005237
05:00+13n31093100 0.0 1005288
08:00+16nne31083100 0.0 1006483
11:00+19ne51258100 0.1 10061320
14:00+22ene51046100 0.1 10061784
17:00+23ene593791 0.0 10072382
20:00+19ne410495 0.0 1009477
8 august, sun
sun823:00+12nne310692 0.0 1010196
02:00+11n38750 0.0 1010134
05:00+10n310854 0.0 1011194
08:00+16nne486067 0.0 1011398
11:00+21nne573828 0.0 10091569
14:00+23nne5730100 0.0 10092174
17:00+23nne5731100 0.0 10082331
20:00+18nne3751100 0.0 1010195
9 august, mon
mon923:00+14n31061100 0.0 1010216
02:00+13n2966100 0.0 1010188
05:00+12nnw267199 0.0 1011143
08:00+15nne395999 0.0 1011421
11:00+12sw1287100 1.8 101169
14:00+12n2891100 5.5 1011355
17:00+13nne31290100 2.3 1012628
20:00+13n2493100 2.3 1012106